• Processing (Info)

  • MPEC 2004-B41 : S/2003 J 22

    The following Minor Planet Electronic Circular may be linked-to from your own Web pages, but must not otherwise be redistributed electronically.

    A form allowing access to any MPEC is at the bottom of this page.


    Read MPEC 2004-B40 Read MPEC 2004-B42


    M.P.E.C. 2004-B41                                Issued 2004 Jan. 24, 18:24 UT
    
         The Minor Planet Electronic Circulars contain information on unusual
             minor planets and routine data on comets.  They are published
       on behalf of Commission 20 of the International Astronomical Union by the
              Minor Planet Center, Smithsonian Astrophysical Observatory,
                              Cambridge, MA 02138, U.S.A.
    
             Supported in part by the Steven and Michele Kirsch Foundation
                 Prepared using the Tamkin Foundation Computer Network
    
                                  MPC@CFA.HARVARD.EDU
              URL http://cfa-www.harvard.edu/iau/mpc.html  ISSN 1523-6714
    
                                      S/2003 J 22
    
    Observations:
        SK03J220  C2003 02 09.47469 08 50 56.70 +18 58 46.4                 EB041568
        SK03J220  C2003 02 09.48459 08 50 56.36 +18 58 47.7                 EB041568
        SK03J220  C2003 02 09.49447 08 50 56.05 +18 58 48.8                 EB041568
        SK03J220  C2003 02 26.39135 08 42 53.30 +19 22 52.0          23.3 R EB041568
        SK03J220  C2003 02 26.41444 08 42 52.71 +19 22 53.3                 EB041568
        SK03J220  C2003 02 27.38704 08 42 29.00 +19 23 56.6          23.3 R EB041568
        SK03J220  C2003 02 27.40195 08 42 28.63 +19 23 57.6          23.4 R EB041568
        SK03J220  C2003 02 28.50837 08 42 02.26 +19 25 05.8                 EB041568
        SK03J220  C2003 03 04.41406 08 40 35.45 +19 28 38.7          23.0 R EB041568
        SK03J220  C2003 03 04.42465 08 40 35.19 +19 28 38.9                 EB041568
        SK03J220  C2003 03 26.35344 08 35 52.85 +19 34 58.3                 EB041568
        SK03J220  C2003 03 27.25175 08 35 49.44 +19 34 43.4          23.9 R EB041568
        SK03J220  C2003 03 27.27058 08 35 49.35 +19 34 43.2          23.8 R EB041568
        SK03J220  C2003 03 27.28751 08 35 49.27 +19 34 42.7          23.7 R EB041568
        SK03J220  C2003 04 25.31719 08 39 46.85 +19 06 01.1                 EB041568
        SK03J220  C2003 04 25.33575 08 39 47.19 +19 05 59.0          23.9 R EB041568
        SK03J220  C2003 04 25.35438 08 39 47.55 +19 05 57.1          23.5 R EB041568
        SK03J220  C2003 04 27.25854 08 40 25.57 +19 02 44.6          23.3 R EB041568
        SK03J220  C2003 04 27.27717 08 40 25.97 +19 02 42.3          24.0 R EB041568
        SK03J220  C2003 04 27.29580 08 40 26.34 +19 02 40.3          23.3 R EB041568
    
    Observer details:
    568 Mauna Kea.  Observers (Feb. 9, Feb. 26, Mar. 4) S. S. Sheppard, D. C.
        Jewitt, J. Kleyna, (Feb. 27, 28, Mar. 26, 27, Apr. 25, 27) B. Gladman, J.
        Kavelaars, J.-M. Petit, L. Allen.  Measurers S. S. Sheppard, L. Allen,
        B. Gladman.  3.6-m Canada-France-Hawaii Telescope + CCD, 2.2-m
        University of Hawaii reflector + CCD.
    
    Orbital elements:
    S/2003 J 22
    Epoch 2003 Dec. 27.0 TT = JDT 2453000.5                 MPC
    M  40.00341              (2000.0)            P               Q
    n   0.56278335     Peri.  318.05896     -0.60218359     -0.79167875
    a   0.1430688      Node   192.29751     -0.54106507     +0.30978461
    e   0.2329455      Incl.  151.06357     -0.58704643     +0.52657218
    P   1.75           H   16.4           P/d   639.68
    Residuals in seconds of arc
    030209 568  0.2+  0.1-    030228 568  0.3+  0.6+    030425 568  0.2+  0.0
    030209 568  0.1-  0.2+    030304 568  0.3+  0.5-    030425 568  0.1+  0.2-
    030209 568  0.0   0.3+    030304 568  0.1-  0.8-    030425 568  0.2+  0.2-
    030226 568  0.2-  0.3-    030326 568  0.0   0.4+    030427 568  0.4-  0.3+
    030226 568  0.3-  0.5-    030327 568  0.1+  0.3+    030427 568  0.0   0.1-
    030227 568  0.1-  0.2+    030327 568  0.0   0.4+    030427 568  0.1-  0.1-
    030227 568  0.1-  0.2+    030327 568  0.1-  0.2+
    
    Ephemeris:
        S/2003 J 22                                                  q = 0.1097
    Date    TT    R. A. (2000) Decl.     Delta     r_J   dR.A. ("/m)  dDecl.m1"/')
    2004 01 16    11 20.10   +06 05.3    4.887    0.128    38-/0.04-  1475+/ 24.6+
    2004 01 26    11 17.73   +06 29.1    4.768    0.131   432-/0.48-  1993+/ 33.2+
    2004 02 05    11 14.31   +06 58.8    4.670    0.135   815-/0.91-  2490+/ 41.5+
    2004 02 15    11 10.02   +07 33.1    4.597    0.138  1184-/1.33-  2955+/ 49.3+
    2004 02 25    11 05.12   +08 09.9    4.553    0.141  1536-/1.72-  3376+/ 56.3+
    2004 03 06    10 59.92   +08 46.9    4.538    0.145  1872-/2.10-  3746+/ 62.4+
    2004 03 16    10 54.78   +09 21.8    4.555    0.148  2189-/2.47-  4058+/ 67.6+
    2004 03 26    10 50.03   +09 52.6    4.601    0.151  2489-/2.81-  4311+/ 71.9+
    2004 04 05    10 45.98   +10 17.6    4.673    0.154  2770-/3.13-  4507+/ 75.1+
    2004 04 15    10 42.86   +10 35.7    4.769    0.157  3030-/3.42-  4651+/ 77.5+
    2004 04 25    10 40.81   +10 46.2    4.884    0.159  3266-/3.69-  4748+/ 79.1+
    2004 05 05    10 39.94   +10 49.0    5.013    0.162  3476-/3.93-  4804+/ 80.1+
    2004 05 15    10 40.24   +10 44.3    5.152    0.164  3656-/4.13-  4825+/ 80.4+
    2004 05 25    10 41.69   +10 32.3    5.297    0.166  3805-/4.30-  4816+/ 80.3+
    2004 06 04    10 44.22   +10 13.7    5.442    0.168  3920-/4.43-  4781+/ 79.7+
    2004 06 14    10 47.73   +09 49.0    5.585    0.170  4000-/4.51-  4723+/ 78.7+
    2004 06 24    10 52.13   +09 18.8    5.722    0.171  4044-/4.55-  4644+/ 77.4+
    2004 07 04    10 57.31   +08 43.5    5.850    0.173  4051-/4.55-  4544+/ 75.7+
    2004 07 14    11 03.16   +08 03.9    5.967    0.174  4022-/4.51-  4423+/ 73.7+
    2004 07 24    11 09.61   +07 20.4    6.070    0.175  3957-/4.43-  4283+/ 71.4+
    2004 08 03    11 16.55   +06 33.5    6.158    0.176  3856-/4.31-  4123+/ 68.7+
    2004 08 13    11 23.90   +05 43.9    6.230    0.176  3721-/4.15-  3943+/ 65.7+
    
    Brian G. Marsden             (C) Copyright 2004 MPC           M.P.E.C. 2004-B41
    

    Read MPEC 2004-B40 Read MPEC 2004-B42


    MPEC number:

    Enter an MPEC number in one of the following forms:

    • 1997-B01 (the full form)
    • J97B01 (the packed version of the full form)
    • B01 (the abbreviated form)